DW9996 Weather Reports


time (UTC)temp
F
wind
direction
speed
knots
gust
knots
rain 1hr
in
rain 24hr
in
rain mn
in
humidity
%
barometer
mb
20260904080019 56 17 3.5 6.1 0.00 0.00 0.00 54 1005.2
20260904074534 56 360 1.7 4.3 0.00 0.00 0.00 54 1005.1
20260904073020 56 82 1.7 4.3 0.00 0.00 0.00 53 1005.3
20260904071513 58 49 1.7 6.1 0.00 0.00 0.00 51 1005.4
20260904070012 58 355 3.5 6.1 0.00 0.00 0.00 51 1005.3
20260904064516 59 360 2.6 6.1 0.00 0.00 0.00 51 1005.4
20260904063009 59 21 1.7 4.3 0.00 0.00 0.00 52 1005.5
20260904061506 58 19 1.7 3.5 0.00 0.00 0.00 53 1005.6
20260904060002 57 309 0.0 1.7 0.00 0.00 0.00 55 1005.7
20260904054503 57 302 0.0 1.7 0.00 0.00 0.00 55 1005.6
20260904053001 57 302 0.0 2.6 0.00 0.00 0.00 54 1005.6
20260904051616 58 306 0.9 2.6 0.00 0.00 0.00 52 1005.6
20260904044609 60 311 0.9 5.2 0.00 0.00 0.00 48 1005.8
20260904043101 61 344 1.7 6.1 0.00 0.00 0.00 46 1005.9
20260904041607 62 12 3.5 7.0 0.00 0.00 0.00 45 1005.9
20260904040109 62 17 3.5 7.0 0.00 0.00 0.00 44 1005.9
20260904034608 62 317 2.6 7.0 0.00 0.00 0.00 44 1005.9
20260904033102 62 336 2.6 5.2 0.00 0.00 0.00 45 1005.9
20260904031555 62 347 1.7 4.3 0.00 0.00 0.00 45 1005.8
20260904030055 63 350 3.5 7.0 0.00 0.00 0.00 44 1005.7
20260904024553 62 5 4.3 7.0 0.00 0.00 0.00 45 1005.5
20260904023053 63 350 3.5 6.1 0.00 0.00 0.00 44 1005.4
20260904021549 64 341 2.6 6.1 0.00 0.00 0.00 42 1005.3
20260904020051 66 323 1.7 6.1 0.00 0.00 0.00 40 1005.1
20260904014622 68 360 2.6 7.0 0.00 0.00 0.00 39 1005.0
20260904013049 70 338 1.7 3.5 0.00 0.00 0.00 37 1005.0
20260904011545 72 321 1.7 5.2 0.00 0.00 0.00 35 1004.8
20260904010050 74 309 1.7 7.0 0.00 0.00 0.00 34 1004.8
20260904004543 74 298 2.6 6.1 0.00 0.00 0.00 33 1004.8
20260904003046 75 314 1.7 7.0 0.00 0.00 0.00 33 1004.6
20260904001546 75 289 3.5 10.4 0.00 0.00 0.00 32 1004.4
20260904000040 76 282 3.5 9.6 0.00 0.00 0.00 31 1004.5
20260903234507 77 298 6.1 13.0 0.00 0.00 0.00 29 1004.3
20260903233005 77 267 7.8 13.9 0.00 0.00 0.00 26 1004.0
20260903231506 78 257 4.3 13.0 0.00 0.00 0.00 27 1004.0
20260903230010 76 240 4.3 13.0 0.00 0.00 0.00 28 1004.0
20260903224504 76 288 5.2 11.3 0.00 0.00 0.00 29 1003.9
20260903223003 79 279 4.3 16.5 0.00 0.00 0.00 26 1003.8
20260903221504 77 249 6.1 16.5 0.00 0.00 0.00 28 1003.6
20260903220003 79 291 5.2 17.4 0.00 0.00 0.00 26 1003.6
20260903214501 78 241 7.0 18.2 0.00 0.00 0.00 26 1003.6
20260903213001 78 237 8.7 20.0 0.00 0.00 0.00 27 1003.6
20260903211501 78 267 5.2 13.0 0.00 0.00 0.00 27 1003.5
20260903204558 76 247 5.2 12.2 0.00 0.00 0.00 29 1003.6
20260903203106 76 242 6.1 13.9 0.00 0.00 0.00 29 1003.7
20260903201556 77 225 12.2 18.2 0.00 0.00 0.00 28 1003.6
20260903200055 77 194 10.4 15.6 0.00 0.00 0.00 28 1003.7
20260903194556 76 234 8.7 15.6 0.00 0.00 0.00 29 1003.7
20260903193052 76 259 6.1 16.5 0.00 0.00 0.00 30 1003.8
20260903191551 75 208 6.1 17.4 0.00 0.00 0.00 30 1003.8
20260903190051 76 288 5.2 15.6 0.00 0.00 0.00 30 1003.7
20260903184549 75 215 10.4 18.2 0.00 0.00 0.00 30 1003.7
20260903183047 73 224 8.7 16.5 0.00 0.00 0.00 35 1003.7
20260903181542 72 252 5.2 11.3 0.00 0.00 0.00 39 1003.8
20260903180047 71 200 8.7 13.0 0.00 0.00 0.00 40 1004.0
20260903174537 69 229 6.1 11.3 0.00 0.00 0.00 44 1004.1
20260903173033 68 240 5.2 11.3 0.00 0.00 0.00 46 1004.3
20260903171537 66 212 6.1 12.2 0.00 0.00 0.00 47 1004.2
20260903170036 65 248 7.0 13.0 0.00 0.00 0.00 48 1004.1
20260903164524 63 237 8.7 13.9 0.00 0.00 0.00 51 1004.0
20260903163024 61 194 7.0 13.0 0.00 0.00 0.00 56 1004.0
20260903161515 60 245 5.2 12.2 0.00 0.00 0.00 59 1004.2
20260903160013 59 226 5.2 7.8 0.00 0.00 0.00 61 1004.2
20260903154510 58 211 5.2 10.4 0.00 0.00 0.00 62 1004.2
20260903153006 57 241 5.2 8.7 0.00 0.00 0.00 63 1004.2
20260903151506 57 229 4.3 8.7 0.00 0.00 0.00 64 1004.1
20260903150003 55 239 6.1 11.3 0.00 0.00 0.00 65 1004.0
20260903144610 54 207 6.1 10.4 0.00 0.00 0.00 66 1004.1
20260903143056 53 209 4.3 9.6 0.00 0.00 0.00 67 1003.9
20260903141551 52 237 4.3 8.7 0.00 0.00 0.00 68 1003.7
20260903140051 51 230 4.3 7.8 0.00 0.00 0.00 68 1003.6
20260903134602 51 236 4.3 7.8 0.00 0.00 0.00 68 1003.6
20260903133048 51 234 4.3 7.0 0.00 0.00 0.00 67 1003.4
20260903131545 52 203 5.2 13.9 0.00 0.00 0.00 65 1003.2
20260903130043 51 200 7.8 13.9 0.00 0.00 0.00 67 1002.6
20260903124551 52 207 7.0 13.0 0.00 0.00 0.00 65 1002.6
20260903123040 51 221 7.0 12.2 0.00 0.00 0.00 67 1002.6
20260903121540 51 217 5.2 8.7 0.00 0.00 0.00 68 1002.6
20260903120043 50 217 5.2 9.6 0.00 0.00 0.00 69 1002.6
20260903114540 50 194 7.0 12.2 0.00 0.00 0.00 69 1002.7
20260903113040 49 193 6.1 13.0 0.00 0.00 0.00 71 1002.7
20260903111534 47 192 5.2 8.7 0.00 0.00 0.00 75 1002.6
20260903110036 47 202 3.5 6.1 0.00 0.00 0.00 74 1002.4
20260903104533 47 202 5.2 7.8 0.00 0.00 0.00 75 1002.6
20260903103030 46 190 3.5 6.1 0.00 0.00 0.00 76 1002.6
20260903101527 46 270 0.9 3.5 0.00 0.00 0.00 76 1002.4
20260903100030 47 232 1.7 4.3 0.00 0.00 0.00 75 1002.5
20260903094524 47 261 1.7 4.3 0.00 0.00 0.00 74 1002.4
20260903093023 48 237 3.5 5.2 0.00 0.00 0.00 75 1002.5
20260903091521 47 225 3.5 5.2 0.00 0.00 0.00 75 1002.5
20260903090019 48 259 0.0 1.7 0.00 0.00 0.00 74 1002.3
20260903084535 49 262 0.0 1.7 0.00 0.00 0.00 72 1002.3
20260903083014 49 246 1.7 5.2 0.00 0.00 0.00 73 1002.0
20260903081513 48 235 2.6 6.1 0.00 0.00 0.00 74 1002.1